Location: Bathsheba
(13.2167°N, 59.5167°W)
Time: 23:33:17
(UTC+00:00)

Cosmos 1939 Rocket - Pass Details

Date: 18 September 2020
Orbit: 531 x 585 km, 97.4° (Epoch: 20 October)

Event Time Altitude Azimuth Distance (km) Brightness Sun altitude
Rises 22:45:01 0° 177° (S) 2,748 6.3 -12.6°
Reaches altitude 10° 22:47:10 10° 182° (S) 1,861 5.5 -13.1°
Maximum altitude 22:51:07 54° 260° (W) 696 3.7 -14.1°
Drops below altitude 10° 22:55:08 10° 338° (NNW) 1,888 5.9 -15.0°
Sets 22:57:20 0° 342° (NNW) 2,792 6.7 -15.6°
